Bowman Field
KLOU : now visible

Airfield :











YOU CAN JOIN US ON...

 
LOGIN :

Register | Disclaimer

   EN    FR    IT 

 









Legend :    VFR   Marginal VFR   IFR   Intensive IFR   Very Intensive IFR
Visi :
Ceiling :
>= 8 km
>= 3000ft
5 to 8 km
1000 to 3000 ft
1500m to 5 km
500 to 1000 ft
800 to 1500m
200 to 500 ft
< 800m
< 200 ft
Symbols :   Thunderstorms  Fog  Heavy snow  Heavy precipitations  Wind > 20 kt






- Airport Elevation : 546 ft


KLOU - Bowman Field

CURRENT METAR :
  • 220053Z 31009KT 10SM CLR 14/07 A3005 RMK AO2 SLP173 T01390072

EXPIRED METARs :
  • 212353Z 31006KT 10SM CLR 16/07 A3002 RMK AO2 SLP162 T01560072 10239 20156 53024
  • 212253Z 29010G17KT 10SM CLR 17/07 A2999 RMK AO2 SLP151 T01670072
  • 212153Z 29011G18KT 10SM CLR 19/07 A2997 RMK AO2 SLP145 T01890072

TAF N/A
KZID FIR / North America



MET'MAP, your aeronautical weather chart ! - Copyright ORBIFLY December 2007 - Disclaimer

ORBIFLY MET'MAP TEAM :

Programming & Development : Alexandra Zaïnal
Concept & original design : Baudouin d'Aumeries
Assistance for programming : Marc-Olivier Méhu
Technical & hardware support : Manuel Goepfert

Contact : metmap@orbifly.com




SOURCES & CREDITS :

   NOAA       Earth
Advisory